• In Uzbekistan
  • List of Countries
  • For 7 days
  • Water Temperature
  • Satellite Maps
  • Weather Map
  • Weather Widgets
  • user-avatar
    Login

    Hourly Weather Safaga

    Today, 21 November, Tuesday

    Time Temperature Precipitation Wind Pressure Humidity
    00:00 +16°C° 0 mm 3 mps 704 mmHg 41%
    01:00 +14°C° 0 mm 3 mps 704 mmHg 43%
    02:00 +14°C° 0 mm 3 mps 704 mmHg 44%
    03:00 +15°C° 0 mm 2 mps 704 mmHg 46%
    04:00 +14°C° 0 mm 2 mps 704 mmHg 48%
    05:00 +14°C° 0 mm 2 mps 704 mmHg 50%
    06:00 +14°C° 0 mm 3 mps 705 mmHg 48%
    07:00 +16°C° 0 mm 3 mps 705 mmHg 46%
    08:00 +16°C° 0 mm 3 mps 705 mmHg 44%
    09:00 +18°C° 0 mm 4 mps 706 mmHg 40%
    10:00 +19°C° 0 mm 4 mps 706 mmHg 36%
    11:00 +21°C° 0 mm 4 mps 706 mmHg 31%
    12:00 +21°C° 0 mm 5 mps 706 mmHg 29%
    13:00 +22°C° 0 mm 5 mps 705 mmHg 27%
    14:00 +23°C° 0 mm 5 mps 705 mmHg 24%
    15:00 +22°C° 0 mm 5 mps 705 mmHg 27%
    16:00 +21°C° 0 mm 5 mps 705 mmHg 29%
    17:00 +20°C° 0 mm 5 mps 704 mmHg 31%
    18:00 +19°C° 0 mm 5 mps 705 mmHg 35%
    19:00 +18°C° 0 mm 4 mps 705 mmHg 38%
    20:00 +17°C° 0 mm 4 mps 705 mmHg 42%
    21:00 +17°C° 0 mm 4 mps 705 mmHg 45%
    22:00 +16°C° 0 mm 3 mps 705 mmHg 48%
    23:00 +16°C° 0 mm 3 mps 705 mmHg 50%

    Tomorrow, 22 November, Wednesday

    Time Temperature Precipitation Wind Pressure Humidity
    00:00 +14°C° 0 mm 3 mps 705 mmHg 53%
    01:00 +14°C° 0 mm 3 mps 705 mmHg 56%
    02:00 +13°C° 0 mm 3 mps 704 mmHg 59%
    03:00 +14°C° 0 mm 2 mps 704 mmHg 62%
    04:00 +13°C° 0 mm 2 mps 704 mmHg 66%
    05:00 +13°C° 0 mm 2 mps 704 mmHg 69%
    06:00 +13°C° 0 mm 2 mps 705 mmHg 66%
    07:00 +13°C° 0 mm 3 mps 705 mmHg 63%
    08:00 +14°C° 0 mm 3 mps 706 mmHg 60%
    09:00 +16°C° 0 mm 3 mps 706 mmHg 53%
    10:00 +18°C° 0 mm 3 mps 706 mmHg 45%
    11:00 +19°C° 0 mm 3 mps 706 mmHg 38%
    12:00 +20°C° 0 mm 4 mps 706 mmHg 34%
    13:00 +20°C° 0 mm 4 mps 706 mmHg 31%
    14:00 +21°C° 0 mm 5 mps 705 mmHg 27%
    15:00 +20°C° 0 mm 5 mps 705 mmHg 29%
    16:00 +19°C° 0 mm 5 mps 705 mmHg 31%
    17:00 +17°C° 0 mm 5 mps 705 mmHg 33%
    18:00 +17°C° 0 mm 4 mps 705 mmHg 36%
    19:00 +15°C° 0 mm 4 mps 705 mmHg 40%
    20:00 +14°C° 0 mm 3 mps 706 mmHg 44%
    21:00 +14°C° 0 mm 3 mps 706 mmHg 47%
    22:00 +13°C° 0 mm 3 mps 706 mmHg 49%
    23:00 +12°C° 0 mm 3 mps 706 mmHg 52%

    Day after tomorrow, 23 November, Thursday

    Time Temperature Precipitation Wind Pressure Humidity
    00:00 +12°C° 0 mm 3 mps 705 mmHg 53%
    01:00 +11°C° 0 mm 3 mps 705 mmHg 55%
    02:00 +11°C° 0 mm 3 mps 705 mmHg 57%
    03:00 +10°C° 0 mm 2 mps 705 mmHg 59%
    04:00 +10°C° 0 mm 2 mps 705 mmHg 60%
    05:00 +9°C° 0 mm 2 mps 705 mmHg 62%
    06:00 +10°C° 0 mm 2 mps 705 mmHg 58%
    07:00 +12°C° 0 mm 2 mps 706 mmHg 53%
    08:00 +14°C° 0 mm 2 mps 706 mmHg 48%
    09:00 +14°C° 0 mm 3 mps 707 mmHg 42%
    10:00 +17°C° 0 mm 3 mps 707 mmHg 36%
    11:00 +18°C° 0 mm 3 mps 707 mmHg 30%
    12:00 +19°C° 0 mm 3 mps 707 mmHg 28%
    13:00 +19°C° 0 mm 3 mps 706 mmHg 26%
    14:00 +20°C° 0 mm 3 mps 706 mmHg 24%
    15:00 +19°C° 0 mm 4 mps 706 mmHg 28%
    16:00 +18°C° 0 mm 4 mps 706 mmHg 32%
    17:00 +17°C° 0 mm 4 mps 705 mmHg 35%
    18:00 +16°C° 0 mm 3 mps 706 mmHg 40%
    19:00 +16°C° 0 mm 3 mps 706 mmHg 45%
    20:00 +14°C° 0 mm 3 mps 706 mmHg 49%
    21:00 +13°C° 0 mm 3 mps 706 mmHg 51%
    22:00 +14°C° 0 mm 2 mps 706 mmHg 53%
    23:00 +13°C° 0 mm 2 mps 706 mmHg 55%

    24 November, Friday

    Time Temperature Precipitation Wind Pressure Humidity
    00:00 +12°C° 0 mm 2 mps 706 mmHg 56%
    01:00 +12°C° 0 mm 2 mps 705 mmHg 57%
    02:00 +12°C° 0 mm 2 mps 705 mmHg 58%
    03:00 +10°C° 0 mm 2 mps 705 mmHg 59%
    04:00 +10°C° 0 mm 2 mps 705 mmHg 60%
    05:00 +10°C° 0 mm 2 mps 705 mmHg 61%
    06:00 +12°C° 0 mm 2 mps 705 mmHg 57%
    07:00 +13°C° 0 mm 2 mps 706 mmHg 52%
    08:00 +14°C° 0 mm 2 mps 707 mmHg 48%
    09:00 +16°C° 0 mm 2 mps 707 mmHg 43%
    10:00 +17°C° 0 mm 2 mps 707 mmHg 38%
    11:00 +18°C° 0 mm 2 mps 707 mmHg 34%
    12:00 +19°C° 0 mm 3 mps 706 mmHg 32%
    13:00 +20°C° 0 mm 3 mps 706 mmHg 30%
    14:00 +21°C° 0 mm 3 mps 706 mmHg 28%
    15:00 +20°C° 0 mm 3 mps 706 mmHg 32%
    16:00 +19°C° 0 mm 3 mps 706 mmHg 35%
    17:00 +18°C° 0 mm 3 mps 706 mmHg 39%
    18:00 +17°C° 0 mm 2 mps 706 mmHg 43%
    19:00 +16°C° 0 mm 2 mps 706 mmHg 46%
    20:00 +15°C° 0 mm 2 mps 706 mmHg 50%
    21:00 +15°C° 0 mm 1 mps 706 mmHg 51%
    22:00 +14°C° 0 mm 1 mps 706 mmHg 52%
    23:00 +14°C° 0 mm 1 mps 706 mmHg 53%

    25 November, Saturday

    Time Temperature Precipitation Wind Pressure Humidity
    00:00 +13°C° 0 mm 1 mps 706 mmHg 52%
    01:00 +13°C° 0 mm 1 mps 705 mmHg 52%
    02:00 +13°C° 0 mm 1 mps 705 mmHg 51%
    03:00 +13°C° 0 mm 1 mps 705 mmHg 52%
    04:00 +12°C° 0 mm 1 mps 705 mmHg 53%
    05:00 +12°C° 0 mm 1 mps 705 mmHg 54%
    06:00 +13°C° 0 mm 1 mps 706 mmHg 49%
    07:00 +15°C° 0 mm 1 mps 706 mmHg 45%
    08:00 +16°C° 0 mm 1 mps 707 mmHg 41%
    09:00 +19°C° 0 mm 1 mps 707 mmHg 37%
    10:00 +20°C° 0 mm 1 mps 707 mmHg 34%
    11:00 +21°C° 0 mm 1 mps 707 mmHg 30%
    12:00 +21°C° 0 mm 2 mps 706 mmHg 28%
    13:00 +23°C° 0 mm 2 mps 706 mmHg 27%
    14:00 +23°C° 0 mm 2 mps 706 mmHg 25%
    15:00 +21°C° 0 mm 2 mps 706 mmHg 27%
    16:00 +20°C° 0 mm 2 mps 705 mmHg 29%
    17:00 +19°C° 0 mm 2 mps 705 mmHg 32%
    18:00 +18°C° 0 mm 2 mps 705 mmHg 35%
    19:00 +18°C° 0 mm 1 mps 706 mmHg 38%
    20:00 +16°C° 0 mm 1 mps 706 mmHg 41%
    21:00 +16°C° 0 mm 1 mps 705 mmHg 41%
    22:00 +15°C° 0 mm 1 mps 705 mmHg 42%
    23:00 +14°C° 0 mm 1 mps 705 mmHg 43%

    26 November, Sunday

    Time Temperature Precipitation Wind Pressure Humidity
    00:00 +14°C° 0 mm 1 mps 705 mmHg 43%
    01:00 +14°C° 0 mm 1 mps 705 mmHg 43%
    02:00 +13°C° 0 mm 1 mps 705 mmHg 42%
    03:00 +13°C° 0 mm 1 mps 704 mmHg 42%
    04:00 +12°C° 0 mm 1 mps 704 mmHg 42%
    05:00 +12°C° 0 mm 1 mps 704 mmHg 43%
    06:00 +14°C° 0 mm 1 mps 705 mmHg 39%
    07:00 +15°C° 0 mm 1 mps 706 mmHg 35%
    08:00 +18°C° 0 mm 1 mps 706 mmHg 31%
    09:00 +18°C° 0 mm 2 mps 706 mmHg 28%
    10:00 +19°C° 0 mm 2 mps 706 mmHg 25%
    11:00 +21°C° 0 mm 2 mps 707 mmHg 22%
    12:00 +21°C° 0 mm 3 mps 706 mmHg 22%
    13:00 +22°C° 0 mm 3 mps 706 mmHg 21%
    14:00 +24°C° 0 mm 3 mps 706 mmHg 20%
    15:00 +22°C° 0 mm 3 mps 706 mmHg 23%
    16:00 +21°C° 0 mm 3 mps 706 mmHg 26%
    17:00 +19°C° 0 mm 3 mps 706 mmHg 29%
    18:00 +18°C° 0 mm 3 mps 706 mmHg 34%
    19:00 +17°C° 0 mm 2 mps 706 mmHg 39%
    20:00 +16°C° 0 mm 2 mps 706 mmHg 45%
    21:00 +16°C° 0 mm 2 mps 706 mmHg 47%
    22:00 +15°C° 0 mm 2 mps 706 mmHg 50%
    23:00 +14°C° 0 mm 1 mps 706 mmHg 53%
    Show more